Palm Springs, CA

10:01 AM PST on December 02, 2016 (GMT -0800)
Palm Springs International

Weather History for KPSP - January, 2011

Change the Weather History Date:

Thursday, January 27, 2011

  Actual Average Record
Temperature  
Mean Temperature 64 °F 58 °F  
Max Temperature 77 °F 70 °F 88 °F (1971)
Min Temperature 51 °F 47 °F 28 °F (1950)
Degree Days  
Heating Degree Days 1 7  
Month to date heating degree days 191 213  
Since 1 July heating degree days 516 599  
Cooling Degree Days 0 0  
Month to date cooling degree days 20 0  
Year to date cooling degree days 20 0  
Growing Degree Days 14 (Base 50)    
Moisture  
Dew Point 21 °F    
Average Humidity 21    
Maximum Humidity 32    
Minimum Humidity 10    
Precipitation  
Precipitation 0.00 in 0.00 in 1.22 in (2008)
Month to date precipitation 0.01 0.93  
Year to date precipitation 0.01 0.93  
Since 1 July precipitation 4.28  
Snow  
Snow 0.00 in - - ()
Month to date snowfall 0.0  
Year to date snowfall 0.0  
Snow Depth 0.00 in    
Sea Level Pressure  
Sea Level Pressure 30.17 in    
Wind  
Wind Speed 4 mph (West)    
Max Wind Speed 9 mph    
Max Gust Speed 12 mph    
Visibility 10 miles    
Events      
T = Trace of Precipitation, MM = Missing Value Source: NWS Daily Summary

Daily Weather History Graph

Daily Weather History Graph

Search for Another Location

Airport or City:

Trip Planner

Search our weather history database for the weather conditions in past years. The results will help you decide how hot, cold, wet, or windy it might be!

Date:

Astronomy

Jan. 27, 2011 Rise Set
Actual Time 6:46 AM PST 5:11 PM PST
Civil Twilight 6:19 AM PST 5:38 PM PST
Nautical Twilight 5:49 AM PST 6:08 PM PST
Astronomical Twilight 5:19 AM PST 6:38 PM PST
Moon 1:17 AM PST (1/27) 11:37 AM PST (1/27)
Length of Visible Light 11h 18m
Length of Day
10h 25m
Last Quarter, 36% of the Moon is Illuminated
Jan 27
Last Quarter
Feb 2
New
Feb 10
First Quarter
Feb 18
Full
Feb 24
Last Quarter

Hourly Weather History & Observations

Time (PST) Temp. Dew Point Humidity Pressure Visibility Wind Dir Wind Speed Gust Speed Precip Events Conditions
12:53 AM 57.9 °F 25.0 °F 28% 30.24 in 10.0 mi Calm Calm - N/A   Clear
1:53 AM 60.1 °F 24.1 °F 25% 30.23 in 10.0 mi West 5.8 mph - N/A   Clear
2:53 AM 55.0 °F 26.1 °F 33% 30.22 in 10.0 mi NW 5.8 mph - N/A   Clear
3:53 AM 55.9 °F 24.1 °F 29% 30.22 in 10.0 mi West 5.8 mph - N/A   Clear
4:53 AM 55.9 °F 24.1 °F 29% 30.23 in 10.0 mi West 5.8 mph - N/A   Clear
5:53 AM 57.0 °F 23.0 °F 27% 30.24 in 10.0 mi WSW 6.9 mph - N/A   Clear
6:53 AM 55.0 °F 25.0 °F 31% 30.25 in 10.0 mi West 8.1 mph - N/A   Clear
7:53 AM 57.9 °F 26.1 °F 30% 30.26 in 10.0 mi West 4.6 mph - N/A   Clear
8:53 AM 64.0 °F 28.0 °F 26% 30.26 in 10.0 mi Calm Calm - N/A   Clear
9:53 AM 71.1 °F 19.0 °F 14% 30.26 in 10.0 mi NW 3.5 mph - N/A   Clear
10:53 AM 73.0 °F 17.1 °F 12% 30.24 in 10.0 mi Calm Calm - N/A   Clear
11:53 AM 73.9 °F 17.1 °F 12% 30.20 in 10.0 mi Variable 3.5 mph - N/A   Clear
12:53 PM 75.0 °F 16.0 °F 11% 30.16 in 10.0 mi Variable 3.5 mph - N/A   Clear
1:53 PM 75.9 °F 16.0 °F 10% 30.13 in 10.0 mi SW 5.8 mph - N/A   Clear
2:53 PM 75.9 °F 15.1 °F 10% 30.11 in 10.0 mi SSW 3.5 mph - N/A   Clear
3:53 PM 75.0 °F 17.1 °F 11% 30.10 in 10.0 mi SSW 5.8 mph - N/A   Clear
4:53 PM 70.0 °F 21.9 °F 16% 30.09 in 10.0 mi WSW 4.6 mph - N/A   Clear
5:53 PM 66.9 °F 18.0 °F 15% 30.09 in 10.0 mi WSW 5.8 mph - N/A   Clear
6:53 PM 66.9 °F 16.0 °F 14% 30.10 in 10.0 mi SW 6.9 mph - N/A   Clear
7:53 PM 63.0 °F 18.0 °F 18% 30.11 in 10.0 mi Calm Calm - N/A   Clear
8:53 PM 57.2 °F 21.2 °F 25% 30.11 in 10.0 mi NW 6.9 mph - N/A   Clear
9:53 PM 57.0 °F 19.0 °F 23% 30.12 in 10.0 mi NW 9.2 mph - N/A   Clear
10:53 PM 53.1 °F 19.9 °F 27% 30.12 in 10.0 mi NNW 5.8 mph - N/A   Clear
11:53 PM 54.0 °F 21.0 °F 28% 30.10 in 10.0 mi WNW 3.5 mph - N/A   Clear